Total_Precipitation_Accumulation
2.23 2.35 2.15 2.16 1.96 2.09 2.43 2.70 2.73 2.93 3.07 2.93 2.57 2.35 2.36 2.29 2.07 2.06 2.35 2.55 2.58 2.47 2.55 2.53 2.26 2.12 2.06 1.76 1.55 1.41 1.25 1.13 1.01 0.84 0.78 0.75 0.63 0.44 0.29 0.23 0.23 0.25 0.22
2.43 2.51 2.39 2.34 2.03 2.04 2.35 2.71 2.78 3.07 3.06 3.07 2.58 2.26 2.18 2.18 1.97 1.88 1.98 2.37 2.38 2.25 2.27 2.47 2.52 2.46 2.35 2.09 1.85 1.61 1.43 1.26 1.10 0.89 0.77 0.72 0.66 0.55 0.46 0.36 0.32 0.30 0.26
2.65 2.79 2.71 2.36 2.13 2.22 2.41 2.43 2.57 3.03 2.88 2.84 2.68 2.60 2.53 2.29 2.04 1.93 1.88 2.01 1.93 2.07 2.17 2.27 2.47 2.63 2.66 2.54 2.32 2.05 1.79 1.47 1.20 0.96 0.81 0.71 0.63 0.56 0.52 0.46 0.43 0.40 0.33
2.37 2.57 2.34 1.99 2.06 2.29 2.44 2.42 2.43 2.81 2.92 2.93 2.93 2.78 2.62 2.37 2.00 1.87 1.82 1.75 1.75 1.59 1.84 2.08 2.31 2.53 2.81 2.93 2.98 2.94 2.55 1.96 1.49 1.14 0.91 0.80 0.71 0.60 0.48 0.44 0.44 0.47 0.37
1.62 1.80 1.78 1.71 1.73 1.99 2.05 1.81 2.04 2.33 2.50 2.65 2.48 2.31 2.02 1.78 1.61 1.49 1.46 1.36 1.54 1.63 1.68 1.74 2.03 2.23 2.67 3.28 3.70 3.73 3.37 2.65 1.96 1.56 1.32 1.14 1.04 0.84 0.59 0.48 0.50 0.49 0.42
1.36 1.51 1.52 1.41 1.40 1.52 1.58 1.76 2.04 2.11 2.03 2.10 1.85 1.75 1.66 1.43 1.34 1.29 1.11 1.11 1.27 1.25 1.34 1.57 1.84 1.70 2.16 2.84 3.38 3.65 3.61 3.28 2.63 2.11 1.82 1.67 1.59 1.27 0.87 0.69 0.63 0.54 0.47
1.41 1.52 1.36 1.38 1.32 1.35 1.35 1.47 1.67 1.74 1.54 1.70 1.91 1.74 1.43 1.18 1.15 1.12 1.05 1.11 1.12 1.18 1.35 1.69 1.86 1.86 1.73 1.81 2.11 2.74 3.32 3.57 3.41 2.87 2.35 2.07 2.00 1.69 1.23 1.03 0.87 0.75 0.70
1.36 1.27 1.36 1.19 1.15 1.26 1.23 1.33 1.53 1.53 1.35 1.47 1.72 1.78 1.54 1.43 1.17 0.80 0.92 1.02 1.02 1.22 1.31 1.39 1.66 2.02 1.98 2.11 1.61 1.91 2.80 3.33 3.73 3.71 3.19 2.68 2.39 2.01 1.59 1.40 1.20 1.04 0.95
1.11 1.08 1.08 1.03 1.06 0.98 1.09 1.25 1.37 1.50 1.46 1.28 1.29 1.55 1.49 1.41 1.24 0.92 0.79 0.86 1.02 1.20 1.21 1.35 1.45 1.75 2.00 2.32 2.22 1.82 2.02 2.41 3.24 3.96 3.93 3.24 2.46 1.93 1.70 1.67 1.61 1.36 1.16
1.14 1.09 0.99 1.03 1.02 0.92 1.13 0.99 1.09 1.33 1.42 1.24 1.23 1.21 1.24 1.30 1.30 1.18 1.01 0.88 1.04 1.10 1.15 1.21 1.36 1.64 1.85 2.14 2.22 1.76 1.50 1.71 2.44 3.32 3.78 3.60 2.88 2.17 1.82 1.89 2.13 2.00 1.63
1.26 1.04 1.02 1.10 1.11 0.97 1.00 1.03 1.18 1.22 1.26 1.21 1.20 1.21 1.35 1.35 1.18 1.19 1.19 1.12 1.10 0.92 1.04 1.24 1.37 1.51 1.65 1.94 2.23 1.96 1.75 1.60 1.67 2.07 2.55 2.95 3.07 2.78 2.45 2.43 2.73 2.91 2.72
1.23 1.12 1.12 1.25 1.21 1.14 1.08 1.07 1.10 1.15 1.26 1.34 1.33 1.21 1.25 1.30 1.23 1.26 1.11 1.04 1.10 0.97 1.12 1.36 1.45 1.50 1.52 1.71 1.73 1.68 1.60 1.49 1.41 1.39 1.56 1.84 2.23 2.48 2.47 2.57 2.91 3.28 3.46
1.08 1.14 1.14 1.24 1.21 1.22 1.17 1.24 1.25 1.17 1.24 1.32 1.27 1.22 1.18 1.15 1.23 1.31 1.27 1.13 1.13 1.11 1.31 1.42 1.52 1.56 1.49 1.65 1.69 1.59 1.33 1.24 1.14 1.09 1.16 1.31 1.48 1.76 2.05 2.25 2.55 2.89 3.19
0.99 0.99 1.04 1.07 1.10 1.13 1.12 1.38 1.29 1.30 1.35 1.29 1.18 1.39 1.33 1.16 1.27 1.34 1.46 1.57 1.49 1.44 1.57 1.61 1.68 1.68 1.78 1.82 1.76 1.62 1.34 1.25 1.11 1.03 0.99 0.99 1.03 1.12 1.32 1.54 1.77 2.05 2.34
1.08 1.08 1.09 1.19 1.25 1.27 1.29 1.45 1.42 1.38 1.47 1.31 1.26 1.36 1.31 1.25 1.28 1.28 1.53 1.73 1.86 1.78 1.75 1.71 1.59 1.55 1.61 1.65 1.61 1.38 1.21 1.20 1.08 0.98 0.95 0.91 0.90 0.93 0.97 1.01 1.08 1.16 1.25
1.21 1.25 1.26 1.32 1.37 1.34 1.34 1.49 1.50 1.54 1.58 1.48 1.44 1.42 1.40 1.38 1.47 1.41 1.51 1.66 1.81 1.99 1.92 1.61 1.51 1.49 1.44 1.27 1.29 1.17 1.11 1.23 1.11 0.99 0.94 0.92 0.90 0.89 0.87 0.88 0.89 0.92 0.94
1.27 1.29 1.36 1.42 1.39 1.44 1.53 1.62 1.51 1.55 1.64 1.76 1.70 1.65 1.71 1.78 1.74 1.66 1.69 1.70 1.75 1.97 1.95 1.58 1.56 1.59 1.47 1.28 1.17 1.10 1.06 1.13 1.15 1.22 1.06 0.93 0.83 0.78 0.77 0.78 0.80 0.84 0.88
1.46 1.42 1.45 1.47 1.36 1.38 1.56 1.63 1.61 1.63 1.64 1.65 1.80 2.01 1.98 1.95 1.83 1.70 1.77 1.72 1.72 1.96 1.90 1.68 1.70 1.73 1.67 1.46 1.35 1.23 1.08 1.07 1.14 1.29 1.10 0.97 0.89 0.84 0.81 0.81 0.83 0.83 0.83
1.70 1.72 1.68 1.58 1.49 1.46 1.51 1.60 1.67 1.68 1.71 1.77 1.88 1.95 2.00 2.11 1.97 1.87 1.80 1.76 1.79 1.91 1.99 1.86 1.82 1.97 1.93 1.70 1.55 1.33 1.14 1.17 1.05 1.16 1.13 1.03 1.01 0.96 0.91 0.85 0.82 0.80 0.77
1.74 1.87 1.83 1.75 1.71 1.61 1.48 1.47 1.50 1.56 1.73 1.88 1.92 1.84 1.92 2.15 2.19 2.13 1.96 1.88 1.95 2.06 2.11 2.08 2.04 2.12 2.15 2.06 1.85 1.55 1.38 1.26 1.11 1.04 1.13 1.06 1.03 0.99 0.93 0.86 0.81 0.80 0.80
1.70 1.88 1.95 1.94 1.88 1.72 1.49 1.50 1.59 1.59 1.76 1.81 1.76 1.66 1.65 1.84 2.06 2.14 1.98 1.95 2.04 2.04 2.04 2.08 2.08 2.12 2.13 2.21 2.04 1.73 1.54 1.41 1.22 1.07 1.12 1.07 1.02 0.95 0.95 0.97 0.90 0.83 0.76
2.11 2.16 2.12 2.06 1.96 1.61 1.64 1.62 1.61 1.65 1.75 1.76 1.73 1.68 1.57 1.52 1.56 1.72 1.87 2.00 2.12 2.08 2.04 2.14 2.27 2.28 2.21 2.19 2.17 2.01 1.77 1.55 1.42 1.25 1.29 1.29 1.22 1.15 1.00 0.90 0.92 0.84 0.75
2.50 2.51 2.39 2.22 2.07 1.96 1.83 1.61 1.56 1.50 1.51 1.53 1.58 1.58 1.37 1.26 1.35 1.30 1.47 1.62 1.77 1.85 1.87 2.00 2.13 2.20 2.27 2.36 2.38 2.17 1.99 1.82 1.58 1.39 1.36 1.26 1.17 1.17 1.07 0.99 1.05 0.90 0.83
2.44 2.45 2.38 2.24 2.13 2.04 1.88 1.56 1.47 1.29 1.32 1.37 1.41 1.40 1.36 1.31 1.30 1.34 1.35 1.34 1.33 1.41 1.53 1.56 1.68 1.90 2.11 2.30 2.43 2.32 2.19 1.88 1.60 1.41 1.36 1.25 1.07 1.03 0.99 1.00 1.09 0.99 0.89
2.13 2.04 2.01 2.01 1.98 2.02 1.93 1.59 1.41 1.28 1.38 1.41 1.43 1.44 1.44 1.37 1.47 1.35 1.31 1.35 1.37 1.40 1.45 1.50 1.52 1.67 1.92 2.08 2.14 2.17 2.11 1.93 1.67 1.42 1.32 1.29 1.09 1.01 0.96 0.88 0.90 0.96 0.87
2.01 1.95 1.85 1.87 1.87 1.87 1.84 1.48 1.36 1.29 1.41 1.43 1.47 1.47 1.45 1.34 1.33 1.20 1.14 1.27 1.30 1.33 1.37 1.38 1.39 1.41 1.48 1.78 2.05 1.86 1.83 1.83 1.65 1.39 1.15 1.20 1.19 1.18 1.09 0.85 0.76 0.77 0.74